Regional Weather Roundup
Issued by NWS Grand Forks, ND

Home | Current Version | Previous Version | Graphics & Text | Print | Product List | Glossary On
Versions: 1 2 3 4 5 6 7 8 9 10 11 12 13 14 15 16 17 18 19 20 21 22 23 24 25 26 27 28 29 30 31 32 33 34 35 36 37 38 39 40 41 42 43 44 45 46 47 48 49 50
000
ASUS43 KFGF 212331
RWRFGF
PRAIRIE TO PINES  WEATHER ROUNDUP
NATIONAL WEATHER SERVICE EASTERN NORTH DAKOTA/GRAND FORKS ND
600 PM CDT TUE OCT 21 2014

 **SATELLITE DATA USED TO AUGMENT SKY COVER AT AUTOMATED STATIONS**
 *****  WEATHER ACROSS EASTERN NORTH DAKOTA  *****

CITY           SKY/WX    TMP DP  RH WIND       PRES   REMARKS
GRAND FORKS    CLEAR     63  42  46 S23G32    29.84F
GRAND FRKS AFB CLEAR     64  42  45 SE23G33   29.83F
GRAND FRKS NWS   N/A     59 N/A N/A SE28        N/A
DEVILS LAKE    CLEAR     64  43  45 SE20G25   29.73F
FARGO          CLEAR     64  41  42 SE25G33   29.89S
WAHPETON ARPT  CLEAR     61  37  41 SE18G28   29.94S
$$

 ***** WEATHER ACROSS CENTRAL AND WESTERN NORTH DAKOTA  *****

CITY           SKY/WX    TMP DP  RH WIND       PRES   REMARKS
BISMARCK       CLEAR     81  49  32 S21G28    29.66S
MINOT          CLEAR     72  43  35 SE10      29.62F
JAMESTOWN      CLEAR     72  42  34 S17G28    29.77S
MINOT AFB      CLEAR     70  46  41 S12       29.61F
GARRISON         N/A     72  48  42 SE6       29.62F
WILLISTON      CLEAR     74  42  31 S7        29.57F
DICKINSON      CLEAR     75  47  36 S9        29.60S
HETTINGER      CLEAR     78  44  29 SE12      29.65S
$$

 *****  OTHER AIRPORT OBSERVATIONS IN OUR AREA  *****

CITY           SKY/WX    TMP DP  RH WIND       PRES   REMARKS
WALHALLA         N/A     63  41  45 SE15G25   29.79S
GRAFTON AIRPOR FAIR      61  41  48 SE18G26   29.83S
VALLEY CITY AR FAIR      64  45  48 SE20G26   29.83S
CANDO          FAIR      63  45  51 SE18G28   29.72F
CAVALIER APRT  FAIR      63  41  45 SE16G26   29.81S
GWINNER        CLEAR     66  43  42 SE21G29   29.87S
ROLLA          FAIR      61  41  48 SE15G21   29.73F
 ***** THE ABOVE OBSERVATIONS ARE NON NWS ARE NOT QUALITY
       CONTROLLED AND MAY MIS-REPORT RAIN FOR SNOW...
$$

  *****  WEATHER ACROSS NORTHERN MINNESOTA  *****

CITY           SKY/WX    TMP DP  RH WIND       PRES   REMARKS
FLAG ISLAND    CLEAR     52  39  62 SE20G26   29.96F
WARROAD        CLEAR     54  39  58 SE14      29.96F
ROSEAU         CLEAR     55  39  54 SE18      29.93F
HALLOCK        CLEAR     61  39  44 SE20      29.85S
THF RVR FALLS  CLEAR     57  39  51 SE16      29.92S
BAUDETTE       CLEAR     52  36  54 SE8G21    30.01F
WASKISH        CLEAR     50  37  62 SE13G21   30.03S
CROOKSTON      CLEAR     61  41  48 S22G30    29.90F
STEPHEN NDAWN    N/A     63  43  48 S20         N/A
GREENBUSH NDAW   N/A     57  41  54 SE16        N/A
$$
  *****  WEATHER ACROSS CENTRAL AND WEST MINNESOTA  *****

CITY           SKY/WX    TMP DP  RH WIND       PRES   REMARKS
FOSSTON        CLEAR     57  37  47 SE18G25   29.96S
BEMIDJI        CLEAR     52  37  56 SE17G23   30.02S
PARK RAPIDS    CLEAR     55  38  52 SE18G25   30.04R
ELBOW LAKE     FAIR      58  41  52 SE17G24   29.99R
WADENA         CLEAR     54  39  58 SE15G21   30.04S
DETROIT LAKES  CLEAR     55  41  58 SE16G26   29.99S
MOORHEAD       CLEAR     63  41  45 SE17G24   29.92S
FERGUS FALLS   CLEAR     59  37  44 SE18      29.98S
MORRIS MN      CLEAR     61  43  51 SE14G22   29.98S
STAPLES        CLEAR     52  37  58 SE9       30.06S
$$
  *****  WEATHER ELSEWHERE ACROSS MINNESOTA  *****

CITY           SKY/WX    TMP DP  RH WIND       PRES   REMARKS
DULUTH         PTCLDY    42  35  76 E13       30.17F
INTRNTL FALLS  CLEAR     45  35  68 SE12      30.08F
ELY            CLEAR     37  34  87 SE9       30.17F
CLOQUET        CLEAR     43  36  75 E10       30.17S
WHEATON        CLEAR     61  41  48 SE18G24   29.96R
BRAINERD       CLEAR     52  38  58 SE9       30.10S
HIBBING        CLEAR     44  34  67 SE12      30.15S
ALEXANDRIA     CLEAR     57  41  55 SE13G22   30.04F
SAINT CLOUD    CLEAR     57  39  51 SE10      30.11S
MINNEAPOLIS    CLEAR     55  39  54 SE13      30.14R
$$

  *****  WEATHER ACROSS SOUTH DAKOTA  *****

CITY           SKY/WX    TMP DP  RH WIND       PRES   REMARKS
SIOUX FALLS    CLEAR     70  44  39 SE13      29.97S
BROOKINGS      NOT AVBL
WATERTOWN      CLEAR     70  43  37 SE15G23   29.93R
HURON          CLEAR     77  36  22 S13G29    29.86R
SISSETON         N/A     67  42  40 S18G26    29.90R
ABERDEEN       CLEAR     77  43  29 S18       29.82S
MITCHELL       CLEAR     77  39  25 S18G26    29.89S
PIERRE         CLEAR     79  43  27 S20G30    29.76R
MOBRIDGE       CLEAR     79  44  28 S21       29.68F
RAPID CITY     CLEAR     77  45  32 S15       29.72F
$$

  *****  SOME WEATHER IN NEARBY STATES *****

CITY           SKY/WX    TMP DP  RH WIND       PRES   REMARKS
GLASGOW MT     PTCLDY    72  42  34 NW8       29.57S
GREAT FALLS MT LGT RAIN  45  44  97 SW14      29.81R
CHEYENNE WY    LGT RAIN  63  39  41 W23       29.98S
SCOTTSBLUFF NE CLOUDY    72  43  35 SE7       29.85S
OMAHA NE       CLEAR     69  41  36 SE10      30.03S
DES MOINES IA  CLEAR     63  43  48 E8        30.12S
DAVENPORT IA   CLEAR     53  36  52 E8        30.19R
CHICAGO IL     CLOUDY    49  39  68 N10       30.21R
EAU CLAIRE WI  CLEAR     51  35  54 SE7       30.19R
LA CROSSE WI   CLEAR     55  37  50 SE6       30.19R
$$

  *****  SOME NATIONAL WEATHER *****

CITY           SKY/WX    TMP DP  RH WIND       PRES   REMARKS
LA GUARDIA NY  MOCLDY    63  52  67 E9        29.86R
RALEIGH NC     MOCLDY    64  51  62 CALM      29.86R
ATLANTA GA     CLEAR     70  48  45 NW10      29.96R
NEW ORLEANS LA PTCLDY    78  53  41 E5        29.97S
OKLAHOMA CITY  PTCLDY    78  57  48 S6        30.02S
ALBUQUERQUE NM PTSUNNY   67  45  45 S14       30.06F
SALT LAKE CITY PTSUNNY   60  25  26 NW14      30.01S
LOS ANGELES CA MOSUNNY   72  63  73 W13       29.85F
BOISE ID       SUNNY     60  34  37 W12       30.04S
SEATTLE WA     PTSUNNY   58  50  75 SE10      29.91F
$$

*** WEATHER ACROSS MANITOBA...SASKATCHEWAN AND ONTARIO ***
                ***ONTARIO***

CITY           SKY/WX    TMP DP  RH WIND       PRES   REMARKS
GERALDTON      CLEAR     34  28  80 SE2       30.28S
THUNDER BAY    PTCLDY    37  32  81 SE7       30.29R
SIOUX LOOKOUT  CLEAR     43  34  70 S9G18     30.10F
TORONTO        LGT RAIN  45  41  87 N16G24    30.07R
BIG TROUT LK   CLEAR     45  36  70 S13G18    29.99F
PICKLE LAKE    CLEAR     43  30  61 S10       30.11
DRYDEN         CLEAR     43  36  75 SE14G21   30.08F
KENORA         PTCLDY    46  36  66 SE17G25   30.01
$$
                *** MANITOBA***

CITY           SKY/WX    TMP DP  RH WIND       PRES   REMARKS
BRANDON        PTCLDY    63  45  51 SE10      29.71S
DAUPHIN        CLEAR     61  43  51 SE15G24   29.66S
ISLAND LAKE    CLEAR     52  37  58 S15G24    29.83F
PILOT MOUND      N/A     63  41  45 SE25G32     N/A
THE PAS        PTCLDY    57  45  62 SE12G17   29.56S
THOMPSON       PTCLDY    54  43  66 S9        29.62S
WINNIPEG       PTCLDY    59  41  51 SE25G32   29.83S
LYNN LAKE      MOCLDY    52  43  71 S5        29.52S
CHURCHILL      MOCLDY    41  37  87 SW6       29.62F
GILLAM         PTCLDY    55  39  54 S10       29.66S
$$
                ***SASKATCHEWAN***

CITY           SKY/WX    TMP DP  RH WIND       PRES   REMARKS
ESTEVAN        PTCLDY    66  45  45 SE9       29.59S
KINDERSLEY     MOCLDY    57  41  54 W9        29.59
LLOYDMINSTER   CLOUDY    54  36  50 NW8       29.61R
PRINCE ALBERT  CLOUDY    64  43  45 CALM      29.52R
REGINA         MOCLDY    64  46  52 SE12      29.55
YORKTON        CLEAR     63  43  48 SE13      29.61S
N. BATTLEFORD  MOCLDY    59  39  47 W14       29.59R
LA RONGE       MOCLDY    59  39  47 W6        29.51R
SASKATOON      MOCLDY    66  41  39 NW6       29.55
SWIFT CURRENT  PTCLDY    66  34  30 W13       29.56R
$$
NOTE: THESE ARE AUTOMATED STATIONS WITH LIMITED QUALITY CONTROL
      "FAIR" INDICATES FEW OR NO CLOUDS BELOW 12,000 FEET WITH NO
      SIGNIFICANT WEATHER AND/OR OBSTRUCTIONS TO VISIBILITY.
      SKY/WX - SKY CONDITION AND SIGNIFICANT WEATHER.
      TMP - AIR TEMPERATURE.    DP   - DEWPOINT TEMPERATURE.
      RH  - RELATIVE HUMIDITY.  PRES - PRESSURE.
      HX  - HEAT INDEX.         WCI  - WIND CHILL INDEX.
$



USA.gov is the U.S. government's official web portal to all federal, state and local government web resources and services.